Weather History for Wink, TX

Change the Weather History Date:

Monday, December 26, 2011

  Actual Average Record
Temperature  
Mean Temperature 40 °F -  
Max Temperature 54 °F 58 °F 84 °F (2003)
Min Temperature 26 °F 27 °F 14 °F (1976)
Degree Days  
Heating Degree Days 25    
Moisture  
Dew Point 28 °F    
Average Humidity 73    
Maximum Humidity 96    
Minimum Humidity 35    
Precipitation  
Precipitation 0.00 in - - ()
Sea Level Pressure  
Sea Level Pressure 30.18 in    
Wind  
Wind Speed 6 mph (WNW)    
Max Wind Speed 16 mph    
Max Gust Speed -    
Visibility 10 miles    
Events      
Averages and records for this station are not official NWS values.
T = Trace of Precipitation, MM = Missing Value Source: NWS Daily Summary

Daily Weather History Graph

Daily Weather History Graph

Search for Another Location

Airport:

Trip Planner

Search our weather history database for the weather conditions in past years. The results will help you decide how hot, cold, wet, or windy it might be!

Date:

Astronomy

Dec. 26, 2011 Rise Set
Actual Time 7:50 AM CST 5:55 PM CST
Civil Twilight 7:23 AM CST 6:22 PM CST
Nautical Twilight 6:53 AM CST 6:53 PM CST
Astronomical Twilight 6:23 AM CST 7:23 PM CST
Moon 9:18 AM CST (12/26) 8:18 PM CST (12/26)
Length of Visible Light 10h 58m
Length of Day
10h 04m
Waxing Crescent, 5% of the Moon is Illuminated
Dec 26
Waxing Crescent
Jan 1
First Quarter
Jan 9
Full
Jan 16
Last Quarter
Jan 23
New

Hourly Weather History & Observations

Time (CST) Temp. Windchill Dew Point Humidity Pressure Visibility Wind Dir Wind Speed Gust Speed Precip Events Conditions
12:53 AM 32.0 °F 27.5 °F 30.0 °F 92% 30.33 in 10.0 mi WNW 4.6 mph - N/A   Overcast
1:53 AM 30.9 °F 26.2 °F 30.0 °F 96% 30.30 in 9.0 mi West 4.6 mph - N/A   Mostly Cloudy
2:11 AM 30.2 °F 24.3 °F 28.4 °F 93% 30.28 in 7.0 mi West 5.8 mph - N/A   Mostly Cloudy
2:40 AM 30.2 °F 24.3 °F 28.4 °F 93% 30.28 in 8.0 mi NW 5.8 mph - N/A   Scattered Clouds
2:53 AM 28.9 °F 23.9 °F 28.0 °F 96% 30.30 in 8.0 mi NNW 4.6 mph - N/A   Clear
3:53 AM 28.9 °F 25.2 °F 27.0 °F 92% 30.28 in 10.0 mi WNW 3.5 mph - N/A   Partly Cloudy
4:53 AM 28.0 °F 21.7 °F 26.1 °F 92% 30.26 in 10.0 mi NW 5.8 mph - N/A   Clear
5:53 AM 26.6 °F 22.6 °F 24.8 °F 93% 30.22 in 10.0 mi NNW 3.5 mph - N/A   Clear
6:53 AM 26.1 °F 20.5 °F 24.1 °F 92% 30.24 in 10.0 mi West 4.6 mph - N/A   Partly Cloudy
7:53 AM 27.0 °F 21.6 °F 25.0 °F 92% 30.23 in 10.0 mi West 4.6 mph - N/A   Clear
8:53 AM 28.9 °F 22.8 °F 26.1 °F 89% 30.23 in 10.0 mi West 5.8 mph - N/A   Mostly Cloudy
9:53 AM 35.1 °F 29.3 °F 28.9 °F 78% 30.21 in 10.0 mi West 6.9 mph - N/A   Clear
10:53 AM 37.9 °F 30.0 °F 28.9 °F 70% 30.20 in 10.0 mi WSW 12.7 mph - N/A   Clear
11:53 AM 41.0 °F 33.5 °F 28.9 °F 62% 30.18 in 10.0 mi West 13.8 mph - N/A   Clear
12:53 PM 45.0 °F 38.2 °F 30.0 °F 56% 30.13 in 10.0 mi WSW 15.0 mph - N/A   Clear
1:53 PM 50.0 °F - 30.0 °F 46% 30.07 in 10.0 mi West 13.8 mph - N/A   Clear
2:53 PM 53.1 °F - 28.0 °F 38% 30.06 in 10.0 mi West 16.1 mph - N/A   Clear
3:53 PM 54.0 °F - 28.0 °F 37% 30.05 in 10.0 mi West 13.8 mph - N/A   Clear
4:53 PM 54.0 °F - 27.0 °F 35% 30.06 in 10.0 mi West 12.7 mph - N/A   Clear
5:53 PM 48.9 °F - 28.9 °F 46% 30.07 in 10.0 mi WNW 4.6 mph - N/A   Clear
6:53 PM 44.1 °F - 28.9 °F 55% 30.10 in 10.0 mi Calm Calm - N/A   Clear
7:53 PM 44.1 °F 42.5 °F 28.9 °F 55% 30.12 in 10.0 mi WNW 3.5 mph - N/A   Clear
8:53 PM 39.0 °F 36.8 °F 28.9 °F 67% 30.13 in 10.0 mi West 3.5 mph - N/A   Clear
9:53 PM 37.0 °F 33.3 °F 28.9 °F 73% 30.14 in 10.0 mi WNW 4.6 mph - N/A   Clear
10:53 PM 34.0 °F 28.0 °F 28.9 °F 82% 30.16 in 10.0 mi North 6.9 mph - N/A   Clear
11:53 PM 32.0 °F 24.8 °F 28.9 °F 88% 30.18 in 10.0 mi NNW 8.1 mph - N/A   Clear